Location: ????????
(41.2031°N, 22.5756°E)
Time: 14:39:05
(UTC+00:00)

NOAA 15 - Pass Details

Date: 01 December 2020
Orbit: 798 x 812 km, 98.7° (Epoch: 21 January)

Event Time Altitude Azimuth Distance (km) Brightness Sun altitude
Rises 17:08:22 0° 163° (SSE) 3,313 7.7 -23.3°
Reaches altitude 10° 17:10:41 10° 163° (SSE) 2,384 7.0 -23.7°
Maximum altitude 17:15:58 86° 75° (ENE) 814 4.5 -24.7°
Drops below altitude 10° 17:21:16 10° 347° (NNW) 2,391 7.1 -25.7°
Sets 17:23:37 0° 347° (NNW) 3,324 7.9 -26.1°
